Weather in Lesken

Russia / Republic of North Ossetia — Alania     43°16′34″N   43°49′21″E
temp.,
°C
wind,
m/s
gust,
m/s
humid.,
%
clouds,
%
prec.,
mm/h
press.,
hPa
HPBL,
m
7 march, sun
sun700:00+2wsw3461100 0.0 101746
03:000ne137096 0.0 101977
06:00−5ne2693100 1.8 1023476
09:00−4ne3494100 4.4 1023436
12:00−3ne2383100 0.9 1022636
15:00−2e2374100 1.2 1021789
18:00−5se128392 0.1 102327
21:00−6sw228388 0.1 102348
8 march, mon
mon800:00−7sw127721 0.0 102227
03:00−8sw227811 0.0 102245
06:00−7wsw227340 0.0 102135
09:00−2nne016441 0.0 1020379
12:000e2268100 0.0 1017804
15:00−1ese1173100 0.2 1017618
18:00−3ssw128997 0.3 101739
21:00−5wsw238189 0.3 101942
9 march, tue
tue900:00−5sw227340 0.0 101938
03:00−6wsw227450 0.0 101933
06:00−6sw227676 0.0 101948
09:00−2ne017460 0.0 1018263
12:00+2ene117214 0.0 1017708
15:00+2e127214 0.0 1017921
18:00−1nnw017484 0.1 101923
21:00−3ssw229492 2.0 102298
10 march, wed
wed1000:00−5sw2386100 1.4 102393
03:00−6sw2393100 3.3 102492
06:00−7sw238796 0.6 102572
09:00−4e139296 1.4 1024324
12:00−2ene3491100 0.7 1022511
15:00−2ene3483100 1.3 1020647
18:00−4e1291100 0.3 102030
21:00−5sse1197100 0.9 102096
11 march, thu
thu1100:00−5e1598100 0.7 1019294
03:00−6nne2497100 2.6 1018271
06:00−7wsw1296100 1.4 1017102
09:00−5ene1294100 3.1 1016311
12:00−6ene4694100 2.3 1015608
15:00−7ne4695100 5.4 1014588
18:00−10ne3597100 2.8 1017395
21:00−11nne1297100 4.4 1019134